This demonstration page uses our WeatherBlox Daily Observations layout. Learn more.

Left ArrowRight Arrow

Hourly Observations for March 29, 2015

Temp ( °F °C ) Dew Point ( °F °C ) Humidity (%) Winds ( mph kmh ) Pressure ( in mb ) Visibility ( mi km ) Precip ( " mm )
12:51 am 00:51 Clear 60 15.6 14 -10 16 16 Calm 29.96 1015 10 16 0.00 0.00
1:51 am 01:51 Clear 54 12.2 16 -8.9 22 22 SE 5 7 29.97 1015 10 16 0.00 0.00
2:51 am 02:51 Clear 52 11.1 17 -8.3 25 25 SE 3 6 29.97 1015 10 16 0.00 0.00
3:51 am 03:51 Clear 49 9.4 17 -8.3 28 28 E 3 6 29.98 1015 10 16 0.00 0.00
4:51 am 04:51 Clear 48 8.9 17 -8.3 29 29 Calm 29.99 1016 10 16 0.00 0.00
5:51 am 05:51 Clear 47 8.3 20 -6.7 34 34 Calm 30.01 1016 10 16 0.00 0.00
6:51 am 06:51 Sunny 50 10 19 -7.2 29 29 Calm 30.05 1018 10 16 0.00 0.00
7:51 am 07:51 Sunny 57 13.9 21 -6.1 25 25 SE 5 7 30.06 1018 10 16 0.00 0.00
8:51 am 08:51 Sunny 65 18.3 25 -3.9 22 22 SSE 5 7 30.06 1018 10 16 0.00 0.00
9:51 am 09:51 Sunny 74 23.3 20 -6.7 13 13 VRB 3 6 30.05 1018 10 16 0.00 0.00
10:51 am 10:51 Sunny 80 26.7 20 -6.7 10 10 Calm 30.03 1017 10 16 0.00 0.00
11:51 am 11:51 Sunny 83 28.3 17 -8.3 8 8 S 7 11 30.00 1016 10 16 0.00 0.00
12:51 pm 12:51 Sunny 84 28.9 17 -8.3 8 8 Calm 29.97 1015 10 16 0.00 0.00
1:51 pm 13:51 Sunny 87 30.6 17 -8.3 7 7 VRB 7 11 29.94 1014 10 16 0.00 0.00
2:51 pm 14:51 Sunny 88 31.1 18 -7.8 7 7 VRB 3 6 29.92 1013 10 16 0.00 0.00
3:51 pm 15:51 Sunny 87 30.6 18 -7.8 8 8 NNE 7 11 29.91 1013 10 16 0.00 0.00
4:51 pm 16:51 Sunny 87 30.6 18 -7.8 8 8 N 3 6 29.90 1013 10 16 0.00 0.00
5:51 pm 17:51 Sunny 85 29.4 19 -7.2 9 9 WNW 12 19 29.91 1013 10 16 0.00 0.00
6:51 pm 18:51 Clear 79 26.1 18 -7.8 10 10 WNW 12 19 29.93 1014 10 16 0.00 0.00
7:51 pm 19:51 Clear 73 22.8 20 -6.7 13 13 NNW 9 15 29.94 1014 10 16 0.00 0.00
8:51 pm 20:51 Clear 72 22.2 18 -7.8 13 13 NNW 9 15 29.95 1014 10 16 0.00 0.00
9:51 pm 21:51 Clear 66 18.9 18 -7.8 16 16 WNW 7 11 29.95 1014 10 16 0.00 0.00
10:51 pm 22:51 Clear 66 18.9 17 -8.3 15 15 NNW 7 11 29.95 1014 10 16 0.00 0.00
11:51 pm 23:51 Clear 60 15.6 19 -7.2 20 20 Calm 29.96 1015 10 16 0.00 0.00

Powered by AerisWeather